SCP
-0 -0 -0 -0 0 -0 -0 -0 0 -0 -0 -0 0 0 0 0 0 0 0 0 0 0 0 0 0 0 0 0 0 0 0 0 0 0 0 0 0 0 0 0 0 0 0 0 0
-0 -0 -0 0 -0 -0 -0 0 0 -0 -0 0 0 0 0 0 0 -0 0 0 0 0 0 0 0 0 0 0 0 0 0 0 0 0 0 0 0 0 0 0 0 0 0 0 0
-0 -0 -0 -0 -0 -0 0 0 0 -0 -0 0 0 0 0 0 0 0 0 0 0 0 0 0 0 0 0 0 0 0 0 0 0 0 0 0 0 0 0 0 0 0 0 0 0
-0 0 0 0 0 0 0 -0 -0 -0 0 0 0 0 0 0 0 0 0 0 0 0 0 0 0 0 0 0 0 0 0 0 0 0 0 0 0 0 0 0 0 0 -0 -0 -0
0 0 0 -0 -0 -0 0 0 0 0 0 0 0 0 0 0 0 0 0 0 0 0 0 0 0 0 0 0 0 0 0 0 0 0 0 0 0 0 0 0 0 0 0 -0 0
0 -0 -0 -0 -0 -0 0 0 0 0 0 0 0 0 0 0 0 0 0 0 0 0 0 0 0 0 0 0 0 0 0 0 0 0 0 0 0 0 -0 0 0 0 0 -0 0
-0 -0 -0 -0 0 0 0 0 0 0 0 0 0 0 0 0 0 0 -0 -0 -0 -0 0 0 0 0 0 0 0 0 0 0 0 0 0 0 0 0 0 0 0 0 0 0 0
-0 -0 -0 0 0 0 0 0 0 0 0 0 0 0 0 -0 0 0 0 0 0 0 -0 0 0 0 0 0 0 0 0 0 0 0 0 0 0 0 -0 -0 -0 0 0 0 0
-0 -0 -0 0 0 0 0 0 0 0 0 0 0 0 0 0 0 -0 0 -0 -0 0 0 0 0 0 0 0 0 0 0 0 0 0 0 0 0 0 0 0 0 0 0 0 0
-0 -0 -0 0 0 0 0 0 0 0 0 0 0 0 0 0 0 -0 0 -0 -0 0 0 0 0 0 0 0 0 0 0 0 0 0 0 0 0 0 0 0 0 0 0 0 0
-0 -0 -0 -0 -0 0 0 0 0 0 0 0 0 0 0 0 0 -0 0 -0 -0 0 -0 -0 0 0 0 0 0 0 0 0 0 0 0 0 0 0 0 0 0 0 0 0 0
-0 -0 -0 -0 -0 0 0 0 0 0 0 0 0 0 0 0 0 0 0 -0 -0 0 0 -0 0 0 0 0 0 0 0 0 0 0 0 0 0 0 0 0 0 0 0 0 0
-0 -0 -0 0 0 0 0 0 -0 0 0 0 0 0 0 0 0 0 0 -0 0 0 0 -0 -0 0 0 0 0 0 0 0 0 0 0 0 0 0 0 0 0 0 0 0 0
-0 -0 -0 -0 0 0 0 0 0 0 0 0 0 0 0 -0 0 0 0 -0 0 0 0 0 -0 0 0 0 0 0 0 0 0 0 0 0 -0 0 0 0 0 0 0 0 0
-0 -0 0 0 0 0 0 0 0 0 0 0 0 0 0 0 0 0 0 -0 0 0 0 0 -0 -0 0 0 0 0 0 0 0 0 0 0 0 -0 -0 0 0 0 0 0 0
-0 -0 -0 0 0 0 0 0 0 0 0 0 0 0 0 0 0 0 0 -0 0 0 0 0 -0 0 0 0 0 -0 0 0 0 0 0 0 0 -0 -0 0 0 0 0 0 0
0 -0 -0 0 0 0 0 0 0 0 0 0 0 0 0 0 0 0 0 0 0 0 0 -0 -0 0 0 0 0 0 0 0 0 0 0 0 0 0 0 0 0 0 0 0 0
-0 0 0 0 0 0 0 0 0 0 0 0 0 0 0 0 0 0 0 0 0 0 0 0 0 0 -0 -0 0 0 0 0 0 0 0 0 0 0 0 0 0 0 0 0 0
0 0 0 0 0 0 0 0 0 0 0 0 0 0 0 0 0 0 0 0 0 0 0 0 0 0 -0 -0 -0 0 0 0 0 0 0 0 0 0 0 0 0 0 0 0 0
0 0 0 0 0 0 0 0 0 0 0 0 0 0 0 0 0 0 0 0 0 0 0 0 0 0 0 -0 0 0 -0 0 0 0 0 0 0 0 0 0 0 0 0 0 0
0 0 0 -0 0 0 0 0 0 0 0 0 0 0 0 0 0 0 0 0 0 0 0 0 0 0 -0 -0 -0 0 0 0 0 -0 0 0 0 0 0 0 0 0 0 0 0
0 0 0 0 0 -0 0 0 0 0 0 0 0 0 0 0 0 0 0 0 0 0 0 0 0 0 -0 -0 -0 -0 0 0 0 0 0 -0 -0 0 0 0 0 0 0 0 0
0 -0 0 -0 0 -0 0 0 0 0 0 0 0 0 0 0 0 0 0 0 0 0 0 0 0 0 0 0 -0 0 0 -0 -0 0 0 0 0 0 0 0 0 0 0 0 0
-0 0 0 -0 -0 0 0 0 0 0 0 0 0 0 0 0 0 0 0 0 0 0 0 0 0 0 0 -0 0 0 -0 -0 0 0 0 0 0 -0 0 0 0 0 0 0 0
-0 -0 0 0 0 0 0 0 0 0 0 0 0 0 0 0 0 0 0 0 0 0 0 0 0 0 0 -0 0 0 0 -0 -0 -0 0 0 0 0 0 -0 0 0 0 0 0
-0 -0 0 0 0 0 0 0 0 0 0 0 0 0 0 0 0 0 0 0 0 0 0 0 0 0 0 -0 0 0 0 -0 -0 -0 0 -0 0 0 0 0 -0 0 0 0 0
-0 -0 0 0 0 0 0 0 0 0 0 0 0 0 0 0 0 0 0 0 0 0 0 0 0 0 0 -0 -0 0 -0 0 -0 0 0 -0 0 0 0 0 0 -0 0 0 0
Wind_Speed_500mb
45 46 45 41 40 41 42 41 43 37 23 22 21 32 41 51 57 45 57 53 49 42 28 14 2 15 25 17 15 13 11 22 27 19 17 7 6 8 18 24 9 11 19 20 16
50 50 49 44 45 46 46 48 43 29 22 16 15 16 33 22 29 67 54 42 38 37 29 14 6 6 11 11 12 16 13 23 13 19 25 20 12 10 9 15 33 34 23 33 31
48 49 49 45 45 47 49 49 39 27 21 19 15 9 37 17 21 51 52 48 35 34 30 15 4 3 7 10 14 12 27 17 14 27 25 28 26 29 24 36 51 41 34 28 31
50 51 50 47 47 49 52 43 35 28 24 21 43 40 24 5 12 52 49 49 37 27 22 16 7 4 6 11 12 15 19 24 17 24 24 28 29 36 38 68 55 36 22 24 35
49 51 51 49 50 51 45 31 28 28 28 38 30 23 23 38 24 45 51 53 42 28 21 14 9 7 9 7 11 24 19 27 28 29 32 32 42 35 61 68 59 51 48 37 43
49 51 51 48 50 51 34 30 33 30 46 51 53 48 33 42 25 44 62 64 47 32 21 19 16 15 16 18 20 12 20 26 28 29 35 31 43 22 75 57 65 59 57 49 52
45 49 50 47 50 47 27 23 44 34 20 21 22 10 61 41 27 53 67 63 43 27 28 24 23 17 7 8 29 16 26 27 30 38 25 24 38 51 49 43 55 54 55 52 58
45 48 48 45 46 37 24 18 11 32 34 9 6 21 19 47 23 65 77 59 42 30 22 24 16 19 16 17 14 18 22 23 6 8 13 24 47 42 15 35 55 56 60 52 58
44 49 49 44 44 33 41 38 19 6 27 31 15 13 18 47 52 72 77 46 47 39 28 18 2 3 5 15 22 9 29 32 26 26 25 30 45 11 16 30 43 44 50 50 53
42 49 47 40 41 36 7 18 48 24 8 9 47 10 55 51 50 79 83 26 39 57 9 29 11 2 7 7 15 21 22 25 21 8 13 33 58 33 37 36 32 36 42 38 43
44 46 45 36 38 42 28 10 4 19 60 43 31 25 43 26 26 80 95 14 33 42 22 16 15 18 24 20 25 31 37 48 49 32 41 43 49 38 32 40 47 51 57 47 44
44 43 44 35 28 38 30 17 18 18 29 32 32 41 55 24 31 77 90 28 29 34 41 11 13 21 34 30 26 28 33 51 40 23 32 42 62 49 51 48 50 60 60 59 46
42 43 45 37 15 43 37 20 16 21 10 24 29 49 64 16 32 71 89 26 21 32 33 8 14 38 34 20 28 26 27 39 41 33 34 38 57 51 46 38 52 58 71 60 61
41 46 46 43 15 43 33 14 14 16 7 25 26 26 54 12 22 54 77 17 23 17 22 9 32 30 30 6 34 32 14 34 36 23 19 9 22 29 33 47 42 54 63 73 65
39 43 44 42 31 40 19 13 15 7 6 33 15 20 45 41 23 53 58 16 27 24 17 28 23 27 22 21 44 24 36 42 39 29 31 42 20 23 26 42 47 46 63 72 74
33 39 42 43 44 31 9 10 6 5 10 13 15 27 26 41 22 38 32 44 13 10 25 24 23 4 2 43 32 39 32 40 31 23 23 39 31 21 26 41 39 45 58 67 73
33 32 42 48 56 23 7 3 6 13 13 20 17 22 10 29 17 33 23 41 31 23 38 33 20 11 12 46 25 46 27 8 11 15 26 27 27 41 24 27 32 28 53 58 65
19 34 33 50 42 13 5 8 22 5 9 11 19 14 14 35 14 29 19 15 25 26 11 23 23 18 33 16 19 33 21 11 15 14 24 24 21 28 30 33 49 39 24 18 13
9 39 49 48 42 12 5 16 5 6 12 16 20 6 8 19 15 21 18 9 13 28 21 16 13 39 24 32 9 24 27 40 17 36 20 17 26 2 37 29 31 22 24 21 24
9 5 57 38 34 9 16 13 7 15 14 8 15 13 14 24 23 24 11 4 8 21 28 14 25 15 24 28 7 23 23 17 12 10 14 18 15 16 39 35 36 33 37 40 34
11 10 58 33 31 39 9 10 8 18 23 14 8 9 10 20 24 11 7 6 17 21 32 25 11 20 29 10 27 23 14 10 13 12 9 9 13 22 25 31 33 32 41 43 44
29 12 57 25 21 12 7 6 9 20 24 13 4 9 9 25 15 11 8 11 44 26 38 13 14 21 43 36 7 15 22 16 11 11 13 8 7 26 26 28 37 44 50 46 46
13 11 62 37 8 7 8 9 11 18 10 14 9 12 21 17 14 17 13 35 32 47 16 13 6 22 22 3 10 19 34 36 34 20 4 11 11 39 33 35 53 53 59 61 62
9 6 19 48 27 8 7 13 14 19 5 17 5 15 29 21 5 20 26 30 53 54 31 23 13 19 20 30 31 30 45 34 22 8 17 19 27 41 41 41 48 57 60 60 67
17 10 10 7 17 24 10 6 20 19 12 17 5 28 26 14 25 9 45 46 45 19 20 19 15 27 28 35 36 28 20 33 40 29 17 31 30 50 47 38 56 59 64 67 78
13 8 9 7 9 8 17 11 20 18 8 11 21 28 22 15 20 46 46 42 29 34 24 20 15 31 23 33 20 18 27 31 37 38 22 32 26 45 60 56 73 76 75 79 72
30 20 6 11 6 4 5 9 11 25 6 13 28 25 20 16 45 61 56 40 11 27 28 28 25 20 10 24 24 14 37 28 30 31 26 31 31 40 44 41 70 78 73 76 78
Wind_Direction_500mb
23 21 23 22 18 12 5 360 2 6 16 21 38 122 105 82 64 58 34 9 7 4 355 358 112 180 178 188 195 181 230 237 233 227 254 241 227 234 245 248 278 249 255 265 288
22 20 20 21 18 10 2 355 356 7 17 20 11 122 149 104 63 41 20 15 6 9 8 27 68 163 188 202 201 207 229 234 216 240 259 264 245 279 272 249 270 273 272 262 251
20 18 18 17 16 9 0 355 360 13 29 20 36 87 176 144 59 9 4 6 3 359 3 8 38 209 224 211 200 209 243 228 235 237 255 270 256 252 260 269 259 269 286 253 229
19 16 15 14 13 9 3 8 26 41 35 50 86 82 119 150 57 2 354 357 356 342 338 352 341 246 233 226 227 255 248 243 266 266 264 264 272 257 243 251 261 263 264 255 235
16 16 14 16 13 8 5 23 38 47 71 91 83 84 82 66 35 355 339 349 347 339 310 292 280 214 232 240 291 257 270 266 274 291 277 278 266 264 255 252 261 264 260 244 243
13 14 14 16 14 9 20 53 62 80 103 101 79 70 73 61 343 338 338 350 348 335 311 269 244 239 254 232 231 240 253 274 286 282 279 265 271 256 259 253 258 260 257 245 238
12 12 13 14 17 14 46 79 69 70 139 121 44 51 48 36 353 344 350 352 351 325 301 285 283 262 245 232 252 269 279 272 266 259 244 220 258 239 268 252 252 250 253 245 232
12 10 12 12 22 30 44 52 117 64 53 94 112 68 83 10 355 0 355 360 11 355 322 302 302 252 251 275 287 273 274 279 181 140 219 193 256 260 233 235 247 247 248 241 232
15 12 12 12 22 49 75 67 67 116 65 78 65 92 27 354 15 1 6 7 5 15 44 50 77 185 233 245 268 254 271 265 282 263 258 205 263 290 292 243 245 245 244 242 235
14 13 12 12 12 25 185 75 60 64 116 38 51 68 1 346 15 3 10 18 22 15 44 20 18 127 43 306 267 308 279 279 274 331 265 249 254 263 299 302 279 270 262 250 236
13 13 11 11 14 15 24 207 104 47 64 82 61 67 350 8 343 11 9 3 21 29 14 355 46 34 346 336 319 309 290 284 274 278 292 275 279 281 292 294 286 270 266 261 246
12 15 11 10 14 21 23 85 88 132 78 67 44 28 9 41 19 12 8 28 19 16 6 12 65 10 333 318 308 296 289 276 293 276 259 267 270 277 274 270 272 276 270 263 253
9 11 12 8 4 16 35 59 110 134 94 23 22 20 6 34 33 10 8 3 13 4 2 335 314 338 338 345 350 305 278 285 283 293 271 281 277 267 258 262 255 261 269 263 241
4 8 10 12 12 9 29 63 122 132 90 1 359 10 359 31 28 9 10 14 18 345 355 351 319 330 350 38 353 309 335 322 307 302 279 230 282 269 258 247 240 249 245 253 243
7 10 10 16 14 13 14 91 127 129 62 330 360 351 5 31 336 0 10 23 23 346 5 325 304 328 347 337 326 275 306 298 284 275 266 250 259 272 233 237 233 234 240 241 239
16 9 6 10 15 11 54 101 103 42 38 353 1 345 9 3 353 355 13 26 43 356 348 327 298 349 91 329 315 300 304 291 265 233 238 241 225 263 244 244 247 237 242 238 239
26 16 10 11 3 14 73 14 45 64 340 349 339 336 19 352 341 3 5 34 39 2 350 333 328 344 2 337 338 346 336 299 233 214 250 246 229 240 262 268 275 266 243 239 239
34 27 23 19 8 24 20 66 65 332 2 307 328 330 22 6 346 345 7 25 35 23 337 345 332 3 339 340 312 321 321 305 306 267 264 217 225 247 245 280 288 292 314 309 283
4 20 23 17 4 23 17 51 82 360 318 327 327 16 356 4 330 343 355 21 39 32 17 330 282 313 318 345 0 339 335 303 248 252 267 234 246 89 10 356 353 350 345 353 339
20 58 19 16 11 74 69 103 87 30 329 348 10 19 342 347 350 337 320 72 19 23 14 326 295 295 323 323 165 329 307 332 329 278 246 246 250 8 348 351 355 1 350 346 345
53 65 11 15 37 57 73 78 80 19 31 20 9 327 353 345 322 301 302 342 12 345 346 316 247 292 317 336 316 344 342 334 279 270 319 323 89 352 3 4 354 348 349 347 344
54 57 8 41 55 42 45 29 50 4 22 14 54 64 359 332 308 290 298 311 351 342 326 304 285 289 306 304 255 326 318 324 309 304 287 259 87 3 0 2 356 1 358 355 357
66 59 33 59 71 39 66 41 73 16 9 11 2 6 6 327 316 309 328 330 324 326 317 306 274 316 317 244 356 330 315 320 306 269 348 344 360 355 6 3 3 6 359 5 12
78 44 36 55 59 71 74 38 8 4 360 354 350 12 342 327 287 293 316 317 321 320 320 347 269 260 274 288 298 306 321 351 356 350 325 14 337 343 346 12 6 4 3 12 21
50 62 32 11 23 48 76 35 16 7 352 356 9 357 341 316 319 344 317 315 333 337 330 320 276 284 281 280 288 302 33 28 29 7 33 342 356 350 345 8 9 3 8 17 19
75 56 69 49 20 50 23 32 15 353 318 349 344 338 323 314 335 313 311 319 326 318 335 358 323 312 291 282 294 359 28 43 41 25 10 6 7 349 350 15 8 360 11 17 18
48 54 81 25 27 70 40 353 352 348 323 342 340 333 328 330 310 297 298 293 303 48 16 358 341 320 271 309 306 112 2 28 35 34 13 21 344 347 3 13 4 3 4 16 13
Wind_Speed_850mb
45 46 45 41 40 41 42 41 43 37 23 22 21 32 41 51 57 45 57 53 49 42 28 14 2 15 25 17 15 13 11 22 27 19 17 7 6 8 18 24 9 11 19 20 16
50 50 49 44 45 46 46 48 43 29 22 16 15 16 33 22 29 67 54 42 38 37 29 14 6 6 11 11 12 16 13 23 13 19 25 20 12 10 9 15 33 34 23 33 31
48 49 49 45 45 47 49 49 39 27 21 19 15 9 37 17 21 51 52 48 35 34 30 15 4 3 7 10 14 12 27 17 14 27 25 28 26 29 24 36 51 41 34 28 31
50 51 50 47 47 49 52 43 35 28 24 21 43 40 24 5 12 52 49 49 37 27 22 16 7 4 6 11 12 15 19 24 17 24 24 28 29 36 38 68 55 36 22 24 35
49 51 51 49 50 51 45 31 28 28 28 38 30 23 23 38 24 45 51 53 42 28 21 14 9 7 9 7 11 24 19 27 28 29 32 32 42 35 61 68 59 51 48 37 43
49 51 51 48 50 51 34 30 33 30 46 51 53 48 33 42 25 44 62 64 47 32 21 19 16 15 16 18 20 12 20 26 28 29 35 31 43 22 75 57 65 59 57 49 52
45 49 50 47 50 47 27 23 44 34 20 21 22 10 61 41 27 53 67 63 43 27 28 24 23 17 7 8 29 16 26 27 30 38 25 24 38 51 49 43 55 54 55 52 58
45 48 48 45 46 37 24 18 11 32 34 9 6 21 19 47 23 65 77 59 42 30 22 24 16 19 16 17 14 18 22 23 6 8 13 24 47 42 15 35 55 56 60 52 58
44 49 49 44 44 33 41 38 19 6 27 31 15 13 18 47 52 72 77 46 47 39 28 18 2 3 5 15 22 9 29 32 26 26 25 30 45 11 16 30 43 44 50 50 53
42 49 47 40 41 36 7 18 48 24 8 9 47 10 55 51 50 79 83 26 39 57 9 29 11 2 7 7 15 21 22 25 21 8 13 33 58 33 37 36 32 36 42 38 43
44 46 45 36 38 42 28 10 4 19 60 43 31 25 43 26 26 80 95 14 33 42 22 16 15 18 24 20 25 31 37 48 49 32 41 43 49 38 32 40 47 51 57 47 44
44 43 44 35 28 38 30 17 18 18 29 32 32 41 55 24 31 77 90 28 29 34 41 11 13 21 34 30 26 28 33 51 40 23 32 42 62 49 51 48 50 60 60 59 46
42 43 45 37 15 43 37 20 16 21 10 24 29 49 64 16 32 71 89 26 21 32 33 8 14 38 34 20 28 26 27 39 41 33 34 38 57 51 46 38 52 58 71 60 61
41 46 46 43 15 43 33 14 14 16 7 25 26 26 54 12 22 54 77 17 23 17 22 9 32 30 30 6 34 32 14 34 36 23 19 9 22 29 33 47 42 54 63 73 65
39 43 44 42 31 40 19 13 15 7 6 33 15 20 45 41 23 53 58 16 27 24 17 28 23 27 22 21 44 24 36 42 39 29 31 42 20 23 26 42 47 46 63 72 74
33 39 42 43 44 31 9 10 6 5 10 13 15 27 26 41 22 38 32 44 13 10 25 24 23 4 2 43 32 39 32 40 31 23 23 39 31 21 26 41 39 45 58 67 73
33 32 42 48 56 23 7 3 6 13 13 20 17 22 10 29 17 33 23 41 31 23 38 33 20 11 12 46 25 46 27 8 11 15 26 27 27 41 24 27 32 28 53 58 65
19 34 33 50 42 13 5 8 22 5 9 11 19 14 14 35 14 29 19 15 25 26 11 23 23 18 33 16 19 33 21 11 15 14 24 24 21 28 30 33 49 39 24 18 13
9 39 49 48 42 12 5 16 5 6 12 16 20 6 8 19 15 21 18 9 13 28 21 16 13 39 24 32 9 24 27 40 17 36 20 17 26 2 37 29 31 22 24 21 24
9 5 57 38 34 9 16 13 7 15 14 8 15 13 14 24 23 24 11 4 8 21 28 14 25 15 24 28 7 23 23 17 12 10 14 18 15 16 39 35 36 33 37 40 34
11 10 58 33 31 39 9 10 8 18 23 14 8 9 10 20 24 11 7 6 17 21 32 25 11 20 29 10 27 23 14 10 13 12 9 9 13 22 25 31 33 32 41 43 44
29 12 57 25 21 12 7 6 9 20 24 13 4 9 9 25 15 11 8 11 44 26 38 13 14 21 43 36 7 15 22 16 11 11 13 8 7 26 26 28 37 44 50 46 46
13 11 62 37 8 7 8 9 11 18 10 14 9 12 21 17 14 17 13 35 32 47 16 13 6 22 22 3 10 19 34 36 34 20 4 11 11 39 33 35 53 53 59 61 62
9 6 19 48 27 8 7 13 14 19 5 17 5 15 29 21 5 20 26 30 53 54 31 23 13 19 20 30 31 30 45 34 22 8 17 19 27 41 41 41 48 57 60 60 67
17 10 10 7 17 24 10 6 20 19 12 17 5 28 26 14 25 9 45 46 45 19 20 19 15 27 28 35 36 28 20 33 40 29 17 31 30 50 47 38 56 59 64 67 78
13 8 9 7 9 8 17 11 20 18 8 11 21 28 22 15 20 46 46 42 29 34 24 20 15 31 23 33 20 18 27 31 37 38 22 32 26 45 60 56 73 76 75 79 72
30 20 6 11 6 4 5 9 11 25 6 13 28 25 20 16 45 61 56 40 11 27 28 28 25 20 10 24 24 14 37 28 30 31 26 31 31 40 44 41 70 78 73 76 78
Wind_Direction_850mb
23 21 23 22 18 12 5 360 2 6 16 21 38 122 105 82 64 58 34 9 7 4 355 358 112 180 178 188 195 181 230 237 233 227 254 241 227 234 245 248 278 249 255 265 288
22 20 20 21 18 10 2 355 356 7 17 20 11 122 149 104 63 41 20 15 6 9 8 27 68 163 188 202 201 207 229 234 216 240 259 264 245 279 272 249 270 273 272 262 251
20 18 18 17 16 9 0 355 360 13 29 20 36 87 176 144 59 9 4 6 3 359 3 8 38 209 224 211 200 209 243 228 235 237 255 270 256 252 260 269 259 269 286 253 229
19 16 15 14 13 9 3 8 26 41 35 50 86 82 119 150 57 2 354 357 356 342 338 352 341 246 233 226 227 255 248 243 266 266 264 264 272 257 243 251 261 263 264 255 235
16 16 14 16 13 8 5 23 38 47 71 91 83 84 82 66 35 355 339 349 347 339 310 292 280 214 232 240 291 257 270 266 274 291 277 278 266 264 255 252 261 264 260 244 243
13 14 14 16 14 9 20 53 62 80 103 101 79 70 73 61 343 338 338 350 348 335 311 269 244 239 254 232 231 240 253 274 286 282 279 265 271 256 259 253 258 260 257 245 238
12 12 13 14 17 14 46 79 69 70 139 121 44 51 48 36 353 344 350 352 351 325 301 285 283 262 245 232 252 269 279 272 266 259 244 220 258 239 268 252 252 250 253 245 232
12 10 12 12 22 30 44 52 117 64 53 94 112 68 83 10 355 0 355 360 11 355 322 302 302 252 251 275 287 273 274 279 181 140 219 193 256 260 233 235 247 247 248 241 232
15 12 12 12 22 49 75 67 67 116 65 78 65 92 27 354 15 1 6 7 5 15 44 50 77 185 233 245 268 254 271 265 282 263 258 205 263 290 292 243 245 245 244 242 235
14 13 12 12 12 25 185 75 60 64 116 38 51 68 1 346 15 3 10 18 22 15 44 20 18 127 43 306 267 308 279 279 274 331 265 249 254 263 299 302 279 270 262 250 236
13 13 11 11 14 15 24 207 104 47 64 82 61 67 350 8 343 11 9 3 21 29 14 355 46 34 346 336 319 309 290 284 274 278 292 275 279 281 292 294 286 270 266 261 246
12 15 11 10 14 21 23 85 88 132 78 67 44 28 9 41 19 12 8 28 19 16 6 12 65 10 333 318 308 296 289 276 293 276 259 267 270 277 274 270 272 276 270 263 253
9 11 12 8 4 16 35 59 110 134 94 23 22 20 6 34 33 10 8 3 13 4 2 335 314 338 338 345 350 305 278 285 283 293 271 281 277 267 258 262 255 261 269 263 241
4 8 10 12 12 9 29 63 122 132 90 1 359 10 359 31 28 9 10 14 18 345 355 351 319 330 350 38 353 309 335 322 307 302 279 230 282 269 258 247 240 249 245 253 243
7 10 10 16 14 13 14 91 127 129 62 330 360 351 5 31 336 0 10 23 23 346 5 325 304 328 347 337 326 275 306 298 284 275 266 250 259 272 233 237 233 234 240 241 239
16 9 6 10 15 11 54 101 103 42 38 353 1 345 9 3 353 355 13 26 43 356 348 327 298 349 91 329 315 300 304 291 265 233 238 241 225 263 244 244 247 237 242 238 239
26 16 10 11 3 14 73 14 45 64 340 349 339 336 19 352 341 3 5 34 39 2 350 333 328 344 2 337 338 346 336 299 233 214 250 246 229 240 262 268 275 266 243 239 239
34 27 23 19 8 24 20 66 65 332 2 307 328 330 22 6 346 345 7 25 35 23 337 345 332 3 339 340 312 321 321 305 306 267 264 217 225 247 245 280 288 292 314 309 283
4 20 23 17 4 23 17 51 82 360 318 327 327 16 356 4 330 343 355 21 39 32 17 330 282 313 318 345 0 339 335 303 248 252 267 234 246 89 10 356 353 350 345 353 339
20 58 19 16 11 74 69 103 87 30 329 348 10 19 342 347 350 337 320 72 19 23 14 326 295 295 323 323 165 329 307 332 329 278 246 246 250 8 348 351 355 1 350 346 345
53 65 11 15 37 57 73 78 80 19 31 20 9 327 353 345 322 301 302 342 12 345 346 316 247 292 317 336 316 344 342 334 279 270 319 323 89 352 3 4 354 348 349 347 344
54 57 8 41 55 42 45 29 50 4 22 14 54 64 359 332 308 290 298 311 351 342 326 304 285 289 306 304 255 326 318 324 309 304 287 259 87 3 0 2 356 1 358 355 357
66 59 33 59 71 39 66 41 73 16 9 11 2 6 6 327 316 309 328 330 324 326 317 306 274 316 317 244 356 330 315 320 306 269 348 344 360 355 6 3 3 6 359 5 12
78 44 36 55 59 71 74 38 8 4 360 354 350 12 342 327 287 293 316 317 321 320 320 347 269 260 274 288 298 306 321 351 356 350 325 14 337 343 346 12 6 4 3 12 21
50 62 32 11 23 48 76 35 16 7 352 356 9 357 341 316 319 344 317 315 333 337 330 320 276 284 281 280 288 302 33 28 29 7 33 342 356 350 345 8 9 3 8 17 19
75 56 69 49 20 50 23 32 15 353 318 349 344 338 323 314 335 313 311 319 326 318 335 358 323 312 291 282 294 359 28 43 41 25 10 6 7 349 350 15 8 360 11 17 18
48 54 81 25 27 70 40 353 352 348 323 342 340 333 328 330 310 297 298 293 303 48 16 358 341 320 271 309 306 112 2 28 35 34 13 21 344 347 3 13 4 3 4 16 13